User: anonymous   Login
Location: Austin
(30.3000°N, 97.7500°W)
Time: 23:02:36
(UTC-05:00)
Language:

GP-B - Orbit

View from above orbital plane
View from above orbital plane
View from above satellite
View from above satellite

Ground track
Ground track

The orbit data is extracted from the following two-line orbital elements,

1 28230U 04014A   24148.79697418  .00001283  00000-0  16447-3 0  9993
2 28230  89.8300  65.5583 0003492  89.8383 270.3241 14.80796987 84015
Epoch (UTC): 27 May 2024 19:07:38
Eccentricity: 0.0003492
inclination: 89.8300°
perigee height: 624 km
apogee height: 629 km
right ascension of ascending node: 65.5583°
argument of perigee: 89.8383°
revolutions per day: 14.80796987
mean anomaly at epoch: 270.3241°
orbit number at epoch: 8401

The dashed part of the orbit path shows where the satellite is in the earth's shadow,  

DLR